Sabadell, Spain

5:35 AM CEST en Octubre 16, 2018 (GMT +0200)
Sabadell

Tiempo Historia de LELL - Marzo, 2018

Change the Weather History Date:

Miércoles, Marzo 14, 2018

  Actual Average (WUND) Record (WUND)
Temperature  
Temperatura media 52 ° F -  
Temperatura máxima 64 ° F - - (-1)
Temperatura mínima 39 ° F - - (-1)
Degree Days  
Grados día de calefacción 14    
Growing Degree Days 2 (Base 50)    
Moisture  
Punto de rocío 46 ° F    
Average Humidity 79    
Maximum Humidity 100    
Minimum Humidity 49    
Precipitación  
Precipitación 0.00 pul - - ()
Presión al nivel del mar  
Presión al nivel del mar 29.83 pul    
Viento  
Velocidad del viento 3 mph ()    
Velocidad máxima del viento 9 mph    
Max Gust Speed -    
Visibilidad 6.1 Millas    
Eventos Lluvia    
Averages and records for this station are not official NWS values.
T = Trace of Precipitation, MM = Missing Value Source: Averaged Metar Reports

Daily Weather History Graph

Daily Weather History Graph

Search for Another Location

Airport or City:

Astronomía

Mar. 14, 2018 Salida Puesta
Hora real 7:05 AM CET 6:56 PM CET
Crepúsculo civil 6:37 AM CET 7:24 PM CET
Crepúsculo náutico 6:05 AM CET 7:56 PM CET
Crepúsculo astronómico 5:33 AM CET 8:29 PM CET
Luna 5:34 AM CET (3/14) 3:57 PM CET (3/14)
Horas de luz 12h 46m
Horas de luz
11h 51m
Creciente menguante, 9% of the Moon is Illuminated
Mar 14
Creciente menguante
Mar 17
Nueva
Mar 24
Cuarto creciente
Mar 31
Luna llena
Abr 8
Cuarto menguante

Hourly Weather History & Observations

Hora (CET) Temp. Vientos helados Punto de rocío Humedad Presión Visibilidad Wind Dir Velocidad del viento Velocidad de ráfagas Precip Eventos Condiciones
12:00 AM 46.4 ° F 45.2 ° F 41.0 ° F 81% 29.98 pul 6.2 mi Oeste 3.5 mph - N/A   Desconocido
12:30 AM 44.6 ° F - 41.0 ° F 87% 29.98 pul 6.2 mi Variable 1.2 mph - N/A   Desconocido
1:00 AM 44.6 ° F - 41.0 ° F 87% 29.98 pul 6.2 mi ONO 1.2 mph - N/A   Desconocido
1:30 AM 42.8 ° F 41.1 ° F 41.0 ° F 93% 29.98 pul 6.2 mi Oeste 3.5 mph - N/A   Desconocido
2:00 AM 42.8 ° F 40.1 ° F 41.0 ° F 93% 29.98 pul 6.2 mi Oeste 4.6 mph - N/A   Desconocido
2:30 AM 42.8 ° F - 41.0 ° F 93% 29.98 pul 6.2 mi Variable 2.3 mph - N/A   Desconocido
3:00 AM 42.8 ° F - 39.2 ° F 87% 29.98 pul 6.2 mi Variable 2.3 mph - N/A   Desconocido
3:30 AM 42.8 ° F - 39.2 ° F 87% 29.95 pul 6.2 mi Oeste 1.2 mph - N/A   Desconocido
4:00 AM 42.8 ° F - 39.2 ° F 87% 29.95 pul - Sin viento Sin viento - N/A   Despejado
4:30 AM 42.8 ° F - 39.2 ° F 87% 29.95 pul - Sin viento Sin viento - N/A   Despejado
5:00 AM 42.8 ° F - 39.2 ° F 87% 29.95 pul 6.2 mi Sin viento Sin viento - N/A   Desconocido
5:30 AM 41.0 ° F 39.0 ° F 39.2 ° F 93% 29.95 pul 6.2 mi Oeste 3.5 mph - N/A   Desconocido
6:00 AM 41.0 ° F - 39.2 ° F 93% 29.92 pul 6.2 mi ONO 2.3 mph - N/A   Desconocido
6:30 AM 41.0 ° F - 39.2 ° F 93% 29.92 pul 6.2 mi ONO 1.2 mph - N/A   Desconocido
7:00 AM 41.0 ° F - 39.2 ° F 93% 29.92 pul 6.2 mi ONO 2.3 mph - N/A   Desconocido
7:30 AM 39.2 ° F - 39.2 ° F 100% 29.92 pul 6.2 mi Sin viento Sin viento - N/A   Desconocido
8:00 AM 41.0 ° F - 39.2 ° F 93% 29.92 pul 6.2 mi ONO 1.2 mph - N/A   Parcialmente nublado
8:30 AM 44.6 ° F 43.1 ° F 41.0 ° F 87% 29.92 pul 6.2 mi ONO 3.5 mph - N/A   Parcialmente nublado
9:00 AM 48.2 ° F - 42.8 ° F 82% 29.92 pul - Sin viento Sin viento - N/A   Despejado
9:30 AM 51.8 ° F - 42.8 ° F 71% 29.92 pul - Sin viento Sin viento - N/A   Despejado
10:00 AM 53.6 ° F - 44.6 ° F 72% 29.92 pul - Sin viento Sin viento - N/A   Despejado
10:30 AM 57.2 ° F - 44.6 ° F 63% 29.92 pul - Este 1.2 mph - N/A   Despejado
11:00 AM 60.8 ° F - 44.6 ° F 55% 29.89 pul - Sur 6.9 mph - N/A   Despejado
11:30 AM 60.8 ° F - 44.6 ° F 55% 29.89 pul - SSO 5.8 mph - N/A   Despejado
12:30 PM 62.6 ° F - 46.4 ° F 55% 29.86 pul - Sur 4.6 mph - N/A   Despejado
1:00 PM 64.4 ° F - 44.6 ° F 49% 29.83 pul 6.2 mi Sur 8.1 mph - N/A   Parcialmente nublado
1:30 PM 64.4 ° F - 48.2 ° F 56% 29.83 pul 6.2 mi SO 8.1 mph - N/A   Parcialmente nublado
2:00 PM 64.4 ° F - 50.0 ° F 59% 29.80 pul 6.2 mi SSE 8.1 mph - N/A   Parcialmente nublado
2:30 PM 64.4 ° F - 50.0 ° F 59% 29.77 pul 6.2 mi Sur 8.1 mph - N/A   Parcialmente nublado
3:00 PM 64.4 ° F - 48.2 ° F 56% 29.77 pul 6.2 mi Sur 8.1 mph - N/A   Parcialmente nublado
3:30 PM 64.4 ° F - 50.0 ° F 59% 29.74 pul 6.2 mi SSO 5.8 mph - N/A   Parcialmente nublado
4:00 PM 62.6 ° F - 48.2 ° F 59% 29.74 pul 6.2 mi SSE 9.2 mph - N/A   Parcialmente nublado
4:30 PM 62.6 ° F - 48.2 ° F 59% 29.74 pul 6.2 mi SSE 8.1 mph - N/A   Parcialmente nublado
5:00 PM 60.8 ° F - 50.0 ° F 68% 29.71 pul 6.2 mi Sur 5.8 mph - N/A   Parcialmente nublado
5:30 PM 59.0 ° F - 51.8 ° F 77% 29.71 pul 6.2 mi SSE 6.9 mph - N/A   Parcialmente nublado
6:00 PM 59.0 ° F - 51.8 ° F 77% 29.71 pul 6.2 mi Variable 1.2 mph - N/A   Parcialmente nublado
6:30 PM 57.2 ° F - 51.8 ° F 82% 29.71 pul - Variable 2.3 mph - N/A   Despejado
7:00 PM 57.2 ° F - 50.0 ° F 77% 29.68 pul - Variable 1.2 mph - N/A   Despejado
7:30 PM 55.4 ° F - 50.0 ° F 82% 29.68 pul - Sin viento Sin viento - N/A   Despejado
8:00 PM 55.4 ° F - 51.8 ° F 88% 29.68 pul - Sin viento Sin viento - N/A   Despejado
8:30 PM 55.4 ° F - 51.8 ° F 88% 29.68 pul - Variable 1.2 mph - N/A   Despejado
9:00 PM 55.4 ° F - 51.8 ° F 88% 29.68 pul - Variable 1.2 mph - N/A   Despejado
9:30 PM 55.4 ° F - 51.8 ° F 88% 29.65 pul - SSE 3.5 mph - N/A   Despejado
10:00 PM 55.4 ° F - 51.8 ° F 88% 29.65 pul 6.2 mi Variable 2.3 mph - N/A   Nubes dispersas
10:30 PM 55.4 ° F - 51.8 ° F 88% 29.65 pul 6.2 mi Variable 1.2 mph - N/A Lluvia Lluvia débil
11:00 PM 55.4 ° F - 53.6 ° F 94% 29.62 pul 5.6 mi Sin viento Sin viento - N/A   Nublado
11:30 PM 55.4 ° F - 53.6 ° F 94% 29.59 pul 5.0 mi Sin viento Sin viento - N/A   Nublado